[[{"header":{"parameterUnit":"m.s-1","parameterCategory":1,"la1":30.2991,"la2":30.254,"lo1":-89.0895,"lo2":-89.0444,"dy":0.0017,"dx":0.0017,"nx":28,"ny":28,"refTime":"2023-07-30T03:00:00:Z","depth":0,"parameterNumber":2,"parameterNumberName":"U-component_of_WINDS"},"data":[0,0,0,0,0,0,0,0,0,0,0,0,0,0,0,0,0,0,0,0,0,0,0,0,0,0,0,0,0,0,0,0,0,0,0,0,0,0,0,0,0,0,0,0,0,0,0,0,0,0,0,0,0,0,0,0,0,0,0.2672,0.2674,0,0.2853,0.2855,0.2857,0.2934,0.2933,0.2933,0.2933,0.3119,0.3125,0.313,0,0,0,0,0,0,0,0,0,0,0,0,0,0.2393,0.2398,0.2672,0.2674,0.2676,0.2852,0.2855,0.2857,0.2934,0.2933,0.2933,0.2933,0.3118,0.3124,0.313,0,0,0,0,0,0,0,0,0,0,0,0,0,0.2538,0.2399,0.2671,0.2736,0.2743,0.2852,0.2855,0.2858,0.2934,0.2933,0.2933,0.2932,0.3116,0.3123,0.3131,0.319,0,0,0.3155,0.3159,0,0,0,0,0,0,0,0,0.253,0.2548,0.2724,0.2731,0.274,0.287,0.2825,0.2969,0.2934,0.2862,0.2933,0.2932,0.3037,0.3051,0.3086,0.3199,0.3207,0.3156,0.3161,0.3164,0.3166,0,0,0,0,0,0,0,0.2519,0.2541,0.2744,0.2726,0.2736,0.2756,0.2776,0.2853,0.295,0.2868,0.2874,0.2894,0.3041,0.3079,0.3091,0.3209,0.3156,0.3163,0.3168,0.3171,0.3379,0.338,0,0,0,0,0,0,0.2499,0.2532,0.2738,0.2749,0.2631,0.2761,0.2783,0.2829,0.2949,0.2967,0.2894,0.2897,0.3065,0.3082,0.3098,0.3175,0.3164,0.3172,0.3176,0.3378,0.3379,0.338,0,0,0,0,0,0,0.2492,0.2516,0.273,0.2642,0.2671,0.2766,0.2817,0.2833,0.287,0.2969,0.2987,0.2915,0.3066,0.3087,0.3166,0.3182,0.3175,0.3182,0.3377,0.3378,0.3379,0.3328,0,0,0,0,0,0,0.2484,0.2514,0.2537,0.2642,0.2675,0.2795,0.2818,0.2837,0.2883,0.2889,0.2993,0.301,0.3067,0.3154,0.3174,0.3193,0.3189,0.3376,0.3378,0.3379,0.3329,0.3328,0.3326,0,0,0,0,0,0.2474,0.2516,0.2538,0.2562,0.2706,0.2796,0.2815,0.2879,0.2884,0.2909,0.2972,0.3007,0.3177,0.3162,0.3185,0.3206,0.3375,0.3377,0.3379,0.333,0.3328,0.3326,0,0,0,0,0,0,0.241,0.2531,0.2556,0.2633,0.2704,0.2809,0.2841,0.2876,0.2946,0.2948,0.3026,0.3049,0.3121,0.3172,0.3152,0.327,0.3279,0.3286,0.3234,0.3233,0.3232,0.3218,0.3195,0,0,0,0,0,0.2405,0.2468,0.257,0.2628,0.2662,0.2745,0.2787,0.283,0.2906,0.2937,0.3006,0.3079,0.3149,0.3194,0.3264,0.3337,0.3361,0.3363,0.3362,0.336,0.3365,0.3407,0.3409,0.3386,0.3386,0.3386,0,0,0.2395,0.2469,0.2504,0.2617,0.2676,0.274,0.277,0.2835,0.2883,0.2947,0.3026,0.3079,0.3166,0.3242,0.3279,0.3286,0.3377,0.3362,0.336,0.3366,0.3409,0.3411,0.3413,0.3387,0.3387,0.3386,0,0,0.241,0.2471,0.2527,0.2585,0.2675,0.273,0.2743,0.2843,0.2881,0.2961,0.301,0.3068,0.3188,0.3247,0.3293,0.3329,0.3363,0.335,0.3343,0.3383,0.3385,0.3387,0.34,0.3403,0.3354,0.3354,0.3354,0,0.2386,0.2483,0.255,0.2614,0.2662,0.2722,0.2778,0.2832,0.294,0.2972,0.2979,0.3129,0.3192,0.3283,0.3291,0.3326,0.3344,0.3338,0.3379,0.3382,0.3385,0.3398,0.3402,0.3352,0.3352,0.3352,0.3352,0,0.245,0.2516,0.255,0.2652,0.2704,0.2763,0.284,0.2884,0.2923,0.2977,0.3058,0.3135,0.3222,0.3246,0.3285,0.3343,0.3345,0.3364,0.3375,0.3384,0.3397,0.3403,0.3349,0.3349,0.335,0.3351,0,0,0.243,0.2568,0.2579,0.2626,0.2729,0.2782,0.2844,0.2928,0.2965,0.3037,0.3091,0.319,0.3209,0.3261,0.3307,0.3342,0.3365,0.3357,0.336,0.3356,0.3433,0.3418,0.3422,0.3388,0.3389,0.339,0.3426,0,0.2458,0.2571,0.2633,0.2721,0.2783,0.284,0.2894,0.2963,0.3015,0.3076,0.3134,0.3203,0.3222,0.3254,0.3291,0.3354,0.3381,0.3352,0.3439,0.3442,0.3416,0.343,0.3414,0.3444,0.3431,0.3432,0.3433,0,0.2506,0.2577,0.267,0.2766,0.2794,0.2842,0.2924,0.2981,0.306,0.3096,0.3153,0.3198,0.3266,0.3271,0.3366,0.3344,0.3384,0.342,0.3423,0.3434,0.3438,0.3441,0.3455,0.3459,0.3442,0.3441,0.3441,0,0.2482,0.2601,0.2672,0.271,0.2824,0.2856,0.2904,0.2983,0.303,0.3101,0.3132,0.3211,0.3254,0.3314,0.3379,0.3377,0.3467,0.3478,0.3499,0.3497,0.3515,0.3513,0.3536,0.354,0.354,0.354,0.354,0,0.2507,0.2562,0.2663,0.2706,0.2769,0.284,0.29,0.2954,0.3023,0.3078,0.3133,0.3184,0.3267,0.3328,0.3379,0.345,0.3469,0.35,0.3513,0.3495,0.3491,0.3522,0.3522,0.3541,0.3541,0.354,0.354,0,0.2491,0.2561,0.2642,0.2742,0.2769,0.2811,0.2897,0.2942,0.2996,0.3065,0.3086,0.3172,0.3246,0.3317,0.3417,0.3452,0.3522,0.3539,0.3495,0.3502,0.3519,0.3516,0.3562,0.3572,0.3569,0.3569,0.3568,0,0.2503,0.2546,0.2651,0.2692,0.2739,0.2804,0.2851,0.2923,0.297,0.3063,0.3097,0.3175,0.3242,0.3358,0.343,0.3507,0.3526,0.3537,0.3538,0.3519,0.3526,0.3523,0.3528,0.3535,0.3535,0.3535,0.3534,0,0.2516,0.2548,0.2614,0.2692,0.2747,0.2812,0.2879,0.291,0.2994,0.3044,0.312,0.3172,0.3273,0.3351,0.3436,0.3486,0.3524,0.3533,0.3542,0.3525,0.3497,0.3512,0.3491,0.3532,0.3532,0.3532,0.3533,0.3533,0.2514,0.2555,0.2636,0.2707,0.2765,0.2826,0.2873,0.2933,0.2998,0.3086,0.3124,0.3201,0.328,0.3398,0.3448,0.3509,0.3518,0.3531,0.3535,0.3537,0.3533,0.3487,0.3525,0.3525,0.3525,0.3526,0.3526,0,0.253,0.2585,0.265,0.2742,0.2798,0.2828,0.2904,0.2949,0.3016,0.3086,0.315,0.3238,0.3313,0.339,0.3469,0.3504,0.3523,0.3523,0.3521,0.3532,0.352,0.3505,0.3505,0.3505,0.3505,0.3505,0.3505,0.3505,0.2545,0.2616,0.2658,0.2758,0.2812,0.2888,0.2928,0.2985,0.3041,0.3136,0.3199,0.3248,0.3321,0.3406,0.3477,0.3497,0.3524,0.3518,0.3544,0.3532,0.3533,0.3534,0.352,0.3523,0.3523,0.3551,0.3551,0.3551]},{"header":{"parameterUnit":"m.s-1","parameterCategory":1,"la1":30.2991,"la2":30.254,"lo1":-89.0895,"lo2":-89.0444,"dy":0.0017,"dx":0.0017,"nx":28,"ny":28,"refTime":"2023-07-30T03:00:00:Z","depth":0,"parameterNumber":3,"parameterNumberName":"V-component_of_WINDS"},"data":[0,0,0,0,0,0,0,0,0,0,0,0,0,0,0,0,0,0,0,0,0,0,0,0,0,0,0,0,0,0,0,0,0,0,0,0,0,0,0,0,0,0,0,0,0,0,0,0,0,0,0,0,0,0,0,0,0,0,3.6338,3.6338,0,3.6301,3.63,3.63,3.6259,3.6258,3.6258,3.6257,3.6216,3.6215,3.6215,0,0,0,0,0,0,0,0,0,0,0,0,0,3.6373,3.6373,3.6338,3.6338,3.6337,3.6301,3.63,3.63,3.6259,3.6258,3.6257,3.6257,3.6216,3.6215,3.6215,0,0,0,0,0,0,0,0,0,0,0,0,0,3.6349,3.6373,3.6338,3.6313,3.631,3.6301,3.63,3.6299,3.6259,3.6258,3.6257,3.6256,3.6216,3.6215,3.6215,3.6227,0,0,3.6212,3.6212,0,0,0,0,0,0,0,0,3.635,3.6348,3.6317,3.6314,3.6311,3.6284,3.6297,3.6275,3.6259,3.6278,3.6257,3.6256,3.6239,3.6236,3.6231,3.6225,3.6223,3.6212,3.6211,3.6211,3.6211,0,0,0,0,0,0,0,3.6352,3.6349,3.6323,3.6316,3.6313,3.6302,3.6298,3.6293,3.6264,3.6277,3.6273,3.627,3.6237,3.6232,3.623,3.6223,3.6212,3.6211,3.6211,3.621,3.6225,3.6226,0,0,0,0,0,0,3.6358,3.6351,3.6324,3.6322,3.6329,3.6302,3.6298,3.6293,3.6264,3.6259,3.627,3.6268,3.6234,3.6231,3.6228,3.6241,3.6211,3.621,3.621,3.6224,3.6225,3.6226,0,0,0,0,0,0,3.6359,3.6356,3.6326,3.6336,3.6331,3.6303,3.6298,3.6293,3.6288,3.6259,3.6254,3.627,3.6233,3.6229,3.6228,3.6239,3.621,3.6209,3.6223,3.6225,3.6226,3.6266,0,0,0,0,0,0,3.636,3.6357,3.6361,3.6336,3.6331,3.6327,3.6299,3.6293,3.6287,3.6283,3.6258,3.6253,3.6232,3.6229,3.6227,3.6237,3.6209,3.6222,3.6224,3.6225,3.6263,3.6268,3.6273,0,0,0,0,0,3.6361,3.6373,3.6362,3.6359,3.6336,3.6328,3.6325,3.6301,3.6288,3.6292,3.6274,3.6253,3.6238,3.6229,3.6226,3.6236,3.6221,3.6223,3.6225,3.6261,3.6267,3.6273,0,0,0,0,0,0,3.64,3.637,3.6356,3.6361,3.6347,3.6321,3.6325,3.6308,3.6298,3.6294,3.6265,3.626,3.6262,3.6249,3.624,3.6247,3.6227,3.6228,3.6255,3.6261,3.6265,3.6268,3.6208,0,0,0,0,0,3.6409,3.6405,3.6379,3.6385,3.6379,3.6354,3.6349,3.6333,3.6317,3.6311,3.6292,3.6278,3.6269,3.6264,3.6255,3.6262,3.6255,3.6267,3.6272,3.6276,3.6277,3.628,3.6285,3.6233,3.6233,3.6233,0,0,3.6427,3.641,3.641,3.6393,3.638,3.6377,3.6349,3.6346,3.6343,3.631,3.6308,3.6294,3.6275,3.6278,3.6278,3.6267,3.629,3.6278,3.6282,3.6281,3.6282,3.6287,3.6292,3.6234,3.6234,3.6234,0,0,3.6459,3.6446,3.645,3.6439,3.642,3.6404,3.6405,3.6381,3.6371,3.6369,3.6344,3.6339,3.6326,3.6314,3.6306,3.6334,3.6315,3.6332,3.6356,3.6359,3.6363,3.6366,3.6376,3.638,3.6334,3.6334,3.6334,0,3.6484,3.6478,3.6454,3.6453,3.6446,3.6417,3.6421,3.6411,3.639,3.6386,3.6374,3.6357,3.6342,3.6342,3.6349,3.6344,3.6344,3.6334,3.6364,3.6367,3.637,3.638,3.6383,3.6336,3.6336,3.6335,3.6335,0,3.651,3.6506,3.6511,3.6494,3.6487,3.6489,3.6465,3.6461,3.6445,3.6429,3.6427,3.6409,3.6396,3.6395,3.6379,3.6392,3.6386,3.637,3.6349,3.6378,3.6386,3.6389,3.6339,3.6338,3.6337,3.6337,0,0,3.6563,3.6533,3.6535,3.6527,3.6506,3.6502,3.6502,3.649,3.6488,3.6475,3.6474,3.6464,3.6449,3.644,3.6423,3.6425,3.6449,3.6409,3.6408,3.6417,3.6463,3.6475,3.648,3.6437,3.6437,3.6438,3.6465,0,3.6591,3.659,3.6569,3.6574,3.657,3.6543,3.6543,3.653,3.6515,3.651,3.6493,3.6487,3.6467,3.6462,3.6464,3.6446,3.6458,3.6444,3.6435,3.6435,3.644,3.6484,3.6497,3.6523,3.6468,3.6468,3.6468,0,3.6623,3.6613,3.6618,3.6597,3.6595,3.6595,3.6583,3.6578,3.6562,3.6551,3.6542,3.6523,3.6521,3.6502,3.6499,3.649,3.6485,3.6476,3.6476,3.6474,3.6453,3.6483,3.6531,3.6535,3.6473,3.6473,3.6473,0,3.6662,3.665,3.6651,3.6645,3.662,3.6621,3.6611,3.6595,3.6589,3.6578,3.6574,3.6563,3.6557,3.6548,3.6526,3.6514,3.6526,3.6504,3.6516,3.6517,3.652,3.652,3.6567,3.6517,3.6517,3.6517,3.6517,0,3.6694,3.6698,3.6668,3.6669,3.6673,3.6648,3.6653,3.664,3.6625,3.6623,3.6599,3.6597,3.6568,3.6562,3.6545,3.6545,3.6542,3.6534,3.6529,3.6536,3.6537,3.6532,3.653,3.6518,3.6518,3.6517,3.6517,0,3.6738,3.6718,3.6718,3.6695,3.669,3.6693,3.6674,3.6673,3.6658,3.6655,3.6653,3.6628,3.6621,3.6598,3.6585,3.6573,3.6579,3.657,3.6584,3.6581,3.6595,3.6594,3.6641,3.6646,3.6592,3.6593,3.6593,0,3.676,3.6763,3.6741,3.6738,3.6729,3.6725,3.6719,3.6696,3.6691,3.6674,3.6675,3.6666,3.6658,3.6647,3.6628,3.6618,3.6608,3.6625,3.6606,3.6614,3.6609,3.6609,3.6609,3.6629,3.663,3.6631,3.6631,0,3.6802,3.6792,3.6786,3.6776,3.6771,3.6762,3.6751,3.675,3.6723,3.6719,3.6712,3.6706,3.6693,3.6684,3.6671,3.6659,3.6641,3.6637,3.664,3.6647,3.6655,3.6651,3.6596,3.6636,3.6636,3.6635,3.6635,3.6635,3.6835,3.6837,3.6822,3.6816,3.6806,3.6797,3.6796,3.6781,3.6774,3.6763,3.6749,3.6744,3.6728,3.6709,3.6699,3.6694,3.6684,3.6687,3.6688,3.6689,3.6692,3.6656,3.6691,3.6691,3.6691,3.6691,3.6691,0,3.6876,3.6866,3.686,3.6847,3.6842,3.6826,3.6814,3.6811,3.6807,3.6794,3.6787,3.6779,3.6771,3.6751,3.6741,3.6741,3.6732,3.6739,3.6738,3.6736,3.6702,3.6701,3.6746,3.6746,3.6746,3.6746,3.6746,3.6746,3.6897,3.6898,3.6887,3.6884,3.6872,3.6868,3.6862,3.6854,3.6844,3.6837,3.683,3.6818,3.6802,3.6791,3.6783,3.6777,3.6774,3.6784,3.6776,3.6744,3.6739,3.6734,3.6733,3.6784,3.6784,3.6811,3.6811,3.6811]}]]